Погода в Хонхолой

Россия / Республика Бурятия     51°07′46″N   108°13′08″E
темп.,
°C
ветер,
м/с
пор.,
м/с
влажн.,
%
обл.,
%
осадки,
мм/ч
давл.,
гПа
погр.,
м
7 марта, вс
вс723:00−13в12890 0.0 102721
02:00−13в12879 0.0 102721
05:00−14в128841 0.0 102421
08:00−14в128621 0.0 102520
11:00−7в118123 0.0 1021175
14:00−4з118013 0.0 1018246
17:00−4з11871 0.0 101782
20:00−10св009015 0.0 102021
8 марта, пн
пн823:00−11юв018933 0.0 102021
02:00−11з018867 0.0 102021
05:00−12з118958 0.0 102121
08:00−13зюз119331 0.0 102421
11:00−7зюз239295 0.0 1023194
14:00−3зюз238964 0.0 1023289
17:00−3зсз238988 0.1 1024485
20:00−10ссв119088 0.1 102821
9 марта, вт
вт923:00−12в119369 0.0 102821
02:00−12в229443 0.0 102821
05:00−12в23940 0.0 102621
08:00−12в22920 0.0 102521
11:00−4в22830 0.0 1020193
14:000вюв129442 0.0 1016240
17:00−1з2487100 0.0 1016245
20:00−6з2387100 0.0 102225
10 марта, ср
ср1023:00−8зюз228999 0.0 102521
02:00−11зюз229366 0.0 102721
05:00−13зсз119620 0.0 102921
08:00−13ююз009410 0.0 103021
11:00−5с008622 0.0 1028136
14:00−2ссз118411 0.0 1026179
17:00−1всв12870 0.0 102455
20:00−6всв22820 0.0 102621
11 марта, чт
чт1123:00−8в22830 0.0 102721
02:00−9всв22840 0.0 102621
05:00−10в23850 0.0 102621
08:00−10в22860 0.0 102721
11:00−3в23830 0.0 1025211
14:000вюв12980 0.0 1022141
17:00+1вюв12900 0.0 102128
20:00−4юв22860 0.0 102321